User: anonymous   Login
Location: Archemont
(49.1579°N, 1.7598°E)
Time: 18:16:59
(UTC+00:00)
Language:

Cosmos 1892 - Orbit

View from above orbital plane
View from above orbital plane
View from above satellite
View from above satellite

Ground track
Ground track

The orbit data is extracted from the following two-line orbital elements,

1 18421U 87088A   24151.41112603  .00015391  00000-0  46509-3 0  9994
2 18421  82.4921 275.7073 0010877  64.0499 296.1863 15.34049251  4160
Epoch (UTC): 30 May 2024 09:52:01
Eccentricity: 0.0010877
inclination: 82.4921°
perigee height: 456 km
apogee height: 471 km
right ascension of ascending node: 275.7073°
argument of perigee: 64.0499°
revolutions per day: 15.34049251
mean anomaly at epoch: 296.1863°
orbit number at epoch: 416

The dashed part of the orbit path shows where the satellite is in the earth's shadow,  

DLR